1378947628719,49.7742
1378947688719,49.7872
1378947748719,49.9852
1378947808719,49.8163
1378947868719,49.7516
1378947928719,49.7215
1378947988719,49.8424
1378948048719,49.9132
1378948108719,49.9383
1378948168719,49.7320
1378948228719,49.7619
1378948288719,49.8528
1378948348719,49.7657
1378948408719,49.7703
1378948468719,49.7553
1378948528719,49.6938
1378948588719,49.8409
1378948648719,49.8013
1378948708719,49.7099
1378948768719,49.7679
1378948828719,49.6848
1378948888719,49.8168
1378948948719,49.7298
1378949008719,49.9378
1378949068719,49.5785
1378949128719,49.8080
1378949188719,49.8056
1378949248719,49.7500
1378949308719,49.8079
1378949368719,49.7812
1378949428719,49.5485
1378949488719,49.6844
1378949548719,49.7027
1378949608719,49.7092
1378949668719,49.7631
1378949728719,49.7049
1378949788719,49.7964
1378949848719,49.7324
1378949908719,49.8683
1378949968719,49.6564
1378950028719,49.9046
1378950088719,49.6853
1378950148719,49.8120
1378950208719,49.6870
1378950268719,49.8156
1378950328719,49.9984
1378950388719,49.6725
1378950448719,49.7694
1378950508719,49.7170
1378950568719,49.7883
1378950628719,49.9089
1378950688719,49.7998
1378950748719,49.6855
1378950808719,49.7480
1378950868719,49.9167
1378950928719,49.9048
1378950988719,49.7476
1378951048719,49.7943
1378951108719,49.9163
1378951168719,49.9380
1378951228730,49.8310
1378951288730,49.9436
1378951348730,49.8226
1378951408730,49.7603
1378951468730,49.9508
1378951528730,49.9374
1378951588730,49.8042
1378951648730,49.8460
1378951708730,49.9079
1378951768730,50.0070
1378951828730,49.9267
1378951888730,49.8874
1378951948730,49.9829
1378952008730,49.7413
1378952068730,49.7185
1378952128730,49.9104
1378952188730,49.9202
1378952248730,50.0469
1378952308730,49.9793
1378952368730,49.8986
1378952428730,50.1083
1378952488730,49.9768
1378952548730,49.9233
1378952608730,49.9975
1378952668730,49.8796
1378952728730,49.8783
1378952788730,50.0149
1378952848730,50.0067
1378952908730,49.8278
1378952968730,50.0443
1378953028730,49.9878
1378953088730,50.0072
1378953148730,49.9419
1378953208730,49.8406
1378953268730,49.7924
1378953328730,49.9909
1378953388730,49.8361
1378953448730,50.3160
1378953508730,50.0401
1378953568730,49.9214
1378953628730,49.8292
1378953688730,50.1102
1378953748730,49.9031
1378953808730,49.7486
1378953868730,49.7922
1378953928730,49.8335
1378953988730,49.9263
1378954048730,49.9117
1378954108730,49.8120
1378954168730,49.9538
1378954228730,49.9609
1378954288730,49.8396
1378954348730,49.7872
1378954408730,49.7333
1378954468730,49.8559
1378954528730,49.9224
1378954588730,49.6706
1378954648730,49.7969
1378954708730,49.9175
1378954768730,49.7883
1378958428751,49.5761
1378958488751,49.6552
1378958548751,49.7543
1378958608751,49.7973
1378958668751,49.7852
1378958728751,49.6255
1378958788751,49.6892
1378958848751,49.7563
1378958908751,49.7877
1378958968751,49.7966
1378959028751,49.7077
1378959088751,49.5984
1378959148751,49.6284
1378959208751,49.7982
1378959268751,49.8377
1378959328751,49.7717
1378959388751,49.7865
1378959448751,49.7179
1378959508751,49.8550
1378959568751,49.7637
1378959628751,49.5638
1378959688751,49.6653
1378959748751,49.7490
1378959808751,49.7237
1378959868751,49.7889
1378959928751,49.7514
1378959988751,49.7729
1378960048751,49.8386
1378960108751,49.7208
1378960168751,49.7463
1378960228751,49.7504
1378960288751,49.7353
1378960348751,49.8458
1378960408751,49.7557
1378960468751,49.6832
1378960528751,49.7788
1378960588751,49.7316
1378960648751,49.6687
1378960708751,49.7760
1378960768751,49.8048
1378960828751,49.9156
1378960888751,49.8076
1378960948751,49.7922
1378961008751,49.7998
1378961068751,49.6341
1378961128751,49.7845
1378961188751,49.9721
1378961248751,49.9812
1378961308751,49.7451
1378961368751,49.8341
1378961428751,49.6444
1378961488751,49.8002
1378961548751,49.9895
1378961608751,49.7865
1378961668751,49.7090
1378961728751,49.8722
1378961788751,49.9767
1378961848751,49.7441
1378961908751,49.7622
1378961968751,49.7836
1378962028761,50.0160
1378962088761,49.7848
1378962148761,49.9625
1378962208761,49.9898
1378962268761,49.7611
1378962328761,49.7532
1378962388761,49.8660
1378962448761,49.8592
1378962508761,49.9637
1378962568761,49.8683
1378962628761,49.9628
1378962688761,49.7719
1378962748761,49.9706
1378962808761,49.8946
1378962868761,49.8005
1378962928761,49.9374
1378962988761,49.9737
1378963048761,49.9855
1378963108761,49.8353
1378963168761,49.9285
1378963228761,49.9213
1378963288761,49.6873
1378963348761,49.8545
1378963408761,49.9076
1378963468761,49.8552
1378963528761,49.7443
1378963588761,49.8913
1378963648761,49.7787
1378963708761,49.7780
1378963768761,49.9315
1378963828761,49.8892
1378963888761,49.8132
1378963948761,49.7094
1378964008761,49.7843
1378964068761,50.0396
1378964128761,49.9044
1378964188761,49.9302
1378964248761,49.8841
1378964308761,49.7745
1378964368761,49.8946
1378964428761,49.9634
1378964488761,49.8794
1378964548761,49.9424
1378964608761,49.8938
1378964668761,49.8904
1378964728761,49.9706
1378964788761,50.0451
1378964848761,49.8059
1378964908761,49.8746
1378964968761,50.1038
1378965028761,49.9759
1378965088761,50.0043
1378965148761,49.9219
1378965208761,50.0419
1378965268761,49.7963
1378965328761,49.8942
1378965388761,50.0042
1378965448761,49.8975
1378965508761,49.7121
1378965568761,49.8810
1378965628772,49.9279
1378965688772,49.8934
1378965748772,50.0241
1378965808772,49.9980
1378965868772,49.9003
1378965928772,50.0269
1378965988772,49.9005
1378966048772,49.8304
1378966108772,49.8355
1378966168772,49.8723
1378966228772,49.8346
1378966288772,49.9090
1378966348772,49.9104
1378966408772,49.7044
1378979668801,49.7170
1378979728801,49.7640
1378979788801,49.7183
1378979848801,49.6759
1378979908801,49.6964
1378979968801,49.6998
1378980028812,49.7519
1378980088812,49.8920
1378980148812,49.8759
1378980208812,49.6991
1378980268812,49.6226
1378980328812,49.8793
1378980388812,49.6420
1378980448812,49.8505
1378980508812,49.4337
1378980568812,49.5517
1378980628812,49.6875
1378980688812,49.7351
1378980748812,49.6367
1378980808812,49.7541
1378980868812,49.7485
1378980928812,49.6372
1378980988812,49.7068
1378981048812,49.6573
1378981108812,49.6797
1378981168812,49.8006
1378981228812,49.7590
1378981288812,49.4977
1378981348812,49.5621
1378981408812,49.6963
1378981468812,49.6281
1378981528812,49.6816
1378981588812,49.6039
1378981648812,49.6256
1378981708812,49.6743
1378981768812,49.7931
1378981828812,49.6559
1378981888812,49.8070
1378981948812,49.5578
1378982008812,49.7089
1378982068812,49.6430
1378982128812,49.6969
1378982188812,49.7148
1378982248812,49.8137
1378982308812,49.6256
1378982368812,49.5181
1378982428812,49.4769
1378982488812,49.5452
1378982548812,49.7397
1378982608812,49.6752
1378982668812,49.6266
1378982728812,49.6349
1378982788812,49.4573
1378982848812,49.4547
1378982908812,49.7354
1378982968812,49.5663
1378983028812,49.5584
1378983088812,49.5153
1378983148812,49.5840
1378983208812,49.5107
1378983268812,49.5429
1378983328812,49.4750
1378983388812,49.4920
1378983448812,49.6142
1378983508812,49.4991
1378983568812,49.5344
1378983628823,49.7642
1378983688823,49.6250
1378983748823,49.5277
1378983808823,49.5550
1378983868823,49.5641
1378983928823,49.7347
1378983988823,49.5678
1378984048823,49.4334
1378984108823,49.5958
1378984168823,49.5430
1378984228823,49.5765
1378984288823,49.7301
1378984348823,49.5933
1378984408823,49.5915
1378984468823,49.5551
1378984528823,49.6384
1378984588823,49.5561
1378984648823,49.5806
1378984708823,49.5318
1378984768823,49.4313
1378984828823,49.6796
1378984888823,49.6495
1378984948823,49.7550
1378985008823,49.5396
1378985068823,49.5690
1378985128823,49.7058
1378985188823,49.8176
1378985248823,49.5128
1378985308823,49.6629
1378985368823,49.8059
1378985428823,49.7039
1378985488823,49.7817
1378985548823,49.7862
1378985608823,49.5753
1378985668823,49.7962
1378985728823,49.6429
1378985788823,49.7384
1378985848823,49.7541
1378985908823,49.6454
1378985968823,49.6098
1378986028823,49.5524
1378986088823,49.7039
1378986148823,49.7179
1378986208823,49.6409
1378986268823,49.6810
1378986328823,49.3915
1378986388823,49.7601
1378986448823,49.5007
1378986508823,49.5925
1378986568823,49.5989
1378986628823,49.5334
1378986688823,49.6743
1378986748823,49.7008
1378986808823,49.6288
1378986868823,49.5466
1378986928823,49.5970
1378986988823,49.7082
1378987048823,49.6827
1378987108823,49.6780
1378987168823,49.6520
1378990828846,49.6445
1378990888846,49.6836
1378990948846,49.5058
1378991008846,49.5485
1378991068846,49.6548
1378991128846,49.7215
1378991188846,49.6343
1378991248846,49.6060
1378991308846,49.4645
1378991368846,49.6580
1378991428846,49.5199
1378991488846,49.5809
1378991548846,49.5731
1378991608846,49.5603
1378991668846,49.6924
1378991728846,49.5624
1378991788846,49.5285
1378991848845,49.6011
1378991908845,49.6255
1378991968846,49.5939
1378992028846,49.4541
1378992088846,49.6982
1378992148846,49.4803
1378992208846,49.6971
1378992268846,49.5371
1378992328846,50.0714
1378992388846,49.5111
1378992448846,49.4001
1378992508846,49.5261
1378992568846,49.6841
1378992628846,49.5974
1378992688846,49.5569
1378992748846,49.5362
1378992808846,49.6515
1378992868846,49.7114
1378992928846,49.5117
1378992988846,49.5779
1378993048846,49.6938
1378993108846,49.5847
1378993168845,49.7881
1378993228845,49.6547
1378993288845,49.6343
1378993348846,49.5808
1378993408846,49.6123
1378993468846,49.7105
1378993528846,49.7828
1378993588846,49.6706
1378993648846,49.6512
1378993708846,49.6281
1378993768846,49.7031
1378993828846,49.6474
1378993888846,49.7282
1378993948846,49.6841
1378994008846,49.7796
1378994068846,49.6817
1378994128846,49.6516
1378994188846,49.6720
1378994248846,49.7311
1378994308846,49.6064
1378994368846,49.6839
1378994428858,49.7915
1378994488858,49.6670
1378994548858,49.8059
1378994608858,49.5902
1378994668858,49.7490
1378994728858,49.6697
1378994788858,49.6775
1378994848858,49.5419
1378994908858,49.8577
1378994968858,49.7888
1378995028858,49.8573
1378995088858,49.8534
1378995148858,49.6742
1378995208858,49.7110
1378995268858,49.6911
1378995328858,49.6910
1378995388858,49.7258
1378995448858,49.5580
1378995508858,49.7693
1378995568858,49.7128
1378995628858,49.7493
1378995688857,49.7155
1378995748857,49.6212
1378995808858,49.6580
1378995868858,49.7337
1378995928858,49.7618
1378995988858,49.6805
1378996048858,49.8593
1378996108858,49.8267
1378996168858,49.7405
1378996228858,49.8314
1378996288858,49.8228
1378996348858,49.7646
1378996408858,49.7349
1378996468858,49.6839
1378996528858,49.7647
1378996588858,49.8950
1378996648858,49.9615
1378996708858,49.8659
1378996768858,49.9216
1378996828858,49.8166
1378996888858,49.8545
1378996948858,49.9246
1378997008858,49.8693
1378997068857,49.8197
1378997128858,49.8264
1378997188858,49.7538
1378997248858,49.6914
1378997308858,49.8178
1378997368858,49.9483
1378997428858,49.8439
1378997488858,49.7420
1378997548858,49.8409
1378997608858,49.8454
1378997668858,49.9020
1378997728858,49.9368
1378997788858,49.8181
1378997848858,49.8974
1378997908858,49.9929
1378997968858,49.8893
1378998028870,49.9280
1378998088870,50.0347
1378998148870,49.9830
1378998208870,49.8990
1378998268870,49.9221
1378998328870,49.9124
1378998388870,49.9303
1378998448870,49.8220
1378998508870,49.8860
1378998568870,49.5980
1378998628870,49.9718
1378998688870,49.8880
1378998748870,49.9325
1378998808870,49.9640
1378998868870,49.9606
1378998928870,49.7076
1378998988870,49.8198
1378999048870,49.9693
1378999108870,50.1478
1378999168870,50.0328
1378999228870,49.9804
1378999288870,49.9482
1378999348870,49.9935
1378999408870,49.9966
1378999468870,50.0397
1378999528870,49.8828
1378999588870,49.8211
1378999648870,49.9173
1378999708870,49.9555
1378999768870,49.9023
1378999828870,49.8234
1378999888870,50.0893
1378999948870,50.0877
1379000008870,49.9027
1379000068870,49.9840
1379000128870,50.0535
1379000188870,49.9804
1379000248870,49.9669
1379000308870,49.9198
1379000368870,49.9664
1379000428870,50.0833
1379000488870,49.9632
1379000548870,49.8690
1379000608870,49.9544
1379000668870,49.9264
1379000728870,49.9989
1379000788870,49.8861
1379000848870,50.0375
1379000908870,49.9171
1379000968870,50.0605
1379001028870,49.9596
1379001088870,49.9868
1379001148870,49.8539
1379001208870,49.8192
1379001268870,50.1355
1379001328870,49.8829
1379001388870,50.0326
1379001448870,49.8941
1379001508870,50.0723
1379001568870,50.1006
1379001628882,49.9114
1379001688882,50.0365
1379001748882,50.0017
1379001808882,49.9959
1379001868882,49.9789
1379001928882,49.8771
1379001988882,49.9589
1379002048882,49.8610
1379002108882,50.0777
1379002168882,50.0884
1379002228882,49.9512
1379002288882,50.0346
1379002348882,50.1184
1379002408882,50.0781
1379002468882,49.9217
1379002528882,49.9558
1379002588882,50.0682
1379002648882,50.0992
1379002708882,49.9085
1379002768882,49.8890
1379002828882,50.0959
1379002888882,50.1140
1379002948882,49.9841
1379003008882,50.1039
1379003068882,50.0344
1379003128882,49.8271
1379003188882,49.9708
1379003248882,50.2219
1379003308882,49.9989
1379003368882,50.0284
1379003428882,50.0743
1379003488882,50.0359
1379003548882,49.9161
1379003608882,49.9570
1379003668882,50.0057
1379003728882,49.8064
1379003788882,49.9233
1379003848882,50.0429
1379003908882,49.9127
1379003968882,49.9222
1379004028882,49.8914
1379004088882,50.1003
1379004148882,50.0038
1379004208882,49.9623
1379004268882,49.8369
1379004328882,50.0173
1379004388882,49.8064
1379004448882,50.1308
1379004508882,50.0290
1379004568882,49.7443
1379004628882,49.8935
1379004688882,49.8817
1379004748882,49.8444
1379004808882,49.7330
1379004868882,49.8983
1379004928882,49.8976
1379004988882,49.9384
1379005048882,49.8281
1379005108882,49.8822
1379005168882,49.9091
1379005228881,49.9594
1379005288881,49.8443
1379005348881,49.9520
1379005408881,49.8271
1379005468881,49.8705
1379005528881,49.9516
1379005588881,49.9534
1379005648881,49.9219
1379005708881,49.8667
1379005768881,49.8808
1379005828881,50.0630
1379005888881,49.7532
1379005948881,49.8734
1379006008881,49.8761
1379006068881,49.8435
1379006128881,49.9577
1379006188881,49.9265
1379006248881,49.9303
1379006308881,49.9532
1379006368881,50.0676
1379006428881,49.8676
1379006488881,49.8017
1379006548881,50.0507
1379006608881,49.8649
1379006668881,49.9191
1379006728881,49.8674
1379006788881,49.8820
1379006848881,50.0082
1379006908881,49.9836
1379006968881,49.9733
1379007028881,49.6892
1379007088881,49.9667
1379007148881,49.9348
1379007208881,49.9913
1379007268881,49.9829
1379007328881,49.8293
1379007388881,49.7746
1379007448881,49.9597
1379007508881,49.9308
1379007568881,49.8496
1379007628881,49.8743
1379007688881,49.8000
1379007748881,49.8312
1379007808881,49.8971
1379007868881,49.7560
1379007928881,49.9434
1379007988881,49.8005
1379008048881,49.8158
1379008108881,49.6819
1379008168881,49.9021
1379008228881,49.9131
1379008288881,49.8130
1379008348881,49.9907
1379008408881,49.8504
1379008468881,49.8856
1379008528881,49.6550
1379008588881,49.7293
1379008648881,49.7791
1379008708881,49.9035
1379008768881,49.7687
1379008828894,49.7802
1379008888894,49.6161
1379008948894,49.7732
1379009008894,49.8025
1379009068894,49.7695
1379009128894,49.8365
1379009188894,49.7292
1379009248894,49.6881
1379009308894,49.6733
1379009368894,49.7257
1379009428894,49.9061
1379009488894,49.6927
1379009548894,49.7250
1379009608894,49.7410
1379009668894,49.7072
1379009728894,49.7425
1379009788894,49.7729
1379009848894,49.8503
1379009908894,49.8475
1379009968894,49.6512
1379010028894,49.8748
1379010088894,49.8532
1379010148894,49.8441
1379010208894,49.9404
1379010268894,49.8061
1379010328894,50.0070
1379010388894,50.0956
1379010448894,50.2291
1379010508894,49.7993
1379010568894,49.8356
1379010628894,49.7332
1379010688894,49.7941
1379010748894,49.7265
1379010808894,50.0328
1379010868894,49.9194
1379010928894,49.8840
1379010988894,49.9125
1379011048894,49.9591
1379011108894,49.7853
1379011168894,49.8357
1379011228894,49.9574
1379011288894,49.7935
1379011348894,49.9256
1379011408894,49.7290
1379011468894,49.8747
1379011528894,49.9504
1379011588894,49.8023
1379011648894,49.8995
1379011708894,50.0029
1379011768894,49.9281
1379011828894,49.8555
1379011888894,49.8689
1379011948894,49.8349
1379012008894,49.9568
1379012068894,50.0197
1379012128894,49.9273
1379012188894,49.7207
1379012248894,50.0517
1379012308894,49.9250
1379012368894,49.8959
1379012428907,49.9228
1379012488907,49.9676
1379012548907,50.0880
1379012608907,49.9221
1379012668907,49.9668
1379012728907,49.9347
1379012788907,49.8034
1379012848907,50.0044
1379012908907,49.9504
1379012968907,49.9222
1379013028907,50.0474
1379013088907,49.7671
1379013628907,50.1134
1379013688907,49.9085
1379013748907,50.0011
1379013808907,50.0792
1379013868907,49.9306
1379013928907,49.9628
1379013988907,50.0767
1379014048907,49.9358
1379014108907,49.9993
1379014168907,50.1249
1379014228907,49.8670
1379014288907,50.2049
1379014348907,50.1380
1379014408907,50.1042
1379014468907,49.9098
1379014528907,49.9540
1379014588907,50.0446
1379014648907,50.0749
1379014708907,49.9578
1379014768907,49.9454
1379014828907,50.0129
1379014888907,49.8892
1379014948907,49.9921
1379015008907,49.9622
1379015068907,49.9033
1379015128907,49.9537
1379015188907,49.8814
1379015248907,49.8607
1379015308907,49.8628
1379015368907,49.7929
1379015428907,50.0313
1379015488907,49.9951
1379015548907,49.8929
1379015608907,49.8062
1379015668907,49.7671
1379015728907,50.1415
1379015788907,49.9829
1379015848907,50.0253
1379015908907,50.0148
1379015968907,49.9240
1379016028919,49.8760
1379016088919,50.0282
1379016148919,49.7718
1379016208919,50.1315
1379016268919,49.9899
1379016328919,50.0759
1379016388919,50.0095
1379016448919,49.9627
1379016508919,49.9503
1379016568919,49.9452
1379016628919,49.8939
1379016688919,49.9486
1379016748919,49.9805
1379016808919,50.0214
1379016868919,49.8063
1379016928919,49.7305
1379016988919,49.8984
1379017048919,49.9921
1379017108919,49.9485
1379017168919,49.8072
1379017228919,49.9068
1379017288919,49.6974
1379017348919,49.7822
1379017408919,49.8796
1379017468919,49.9048
1379017528919,49.8746
1379017588919,49.9417
1379017648919,49.9503
1379017708919,50.0151
1379017768919,49.6279
1379017828919,49.7428
1379017888919,49.8351
1379017948919,49.7810
1379018008919,49.7532
1379018068919,49.8730
1379018128919,49.7724
1379018188919,49.7979
1379018248919,49.9070
1379018308919,49.8068
1379018368919,49.6803
1379018428919,49.7902
1379018488919,49.9091
1379018548919,50.0450
1379018608919,49.8115
1379018668919,50.0300
1379018728919,49.7817
1379018788919,49.9476
1379018848919,49.8185
1379018908919,49.9214
1379018968919,49.9344
1379019028919,49.9049
1379019088919,49.9085
1379019148919,49.8219
1379019208919,49.9228
1379019268919,49.8513
1379019328919,49.7295
1379019388919,49.7660
1379019448919,49.6449
1379019508919,49.7926
1379019568919,49.8385
1379019628932,49.8825
1379019688932,49.7846
1379019748932,49.6831
1379019808932,49.8112
1379019868932,49.7899
1379019928932,49.7317
1379019988932,49.8055
1379020048932,49.9599
1379020108932,49.7025
1379020168932,49.7982
1379020228932,49.9086
1379020288932,49.6749
1379020348932,49.7765
1379020408932,49.8603
1379020468932,49.6868
1379020528932,49.7159
1379020588932,49.6601
1379020648932,49.6209
1379020708932,49.8259
1379020768932,49.6468
1379020828932,49.7320
1379020888932,49.6545
1379020948932,49.9293
1379021008932,49.7417
1379021068932,49.7605
1379021128932,49.7804
1379021188932,49.7937
1379021248932,49.7718
1379021308932,49.7567
1379021368932,49.7434
1379021428932,49.6611
1379021488932,49.6769
1379021548932,49.4147
1379021608932,49.7005
1379021668932,49.5784
1379021728932,49.5493
1379021788932,49.6897
1379021848932,49.5675
1379021908932,49.7985
1379021968932,49.6877
1379022028932,49.6826
1379022088932,49.6987
1379022148932,49.6490
1379022208932,49.6491
1379022268932,49.6604
1379022328932,49.6118
1379022388932,49.5449
1379022448932,49.5328
1379022508932,49.4655
1379022568932,49.4957
1379022628932,49.5509
1379022688932,49.6205
1379022748932,49.6497
1379022808932,49.5196
1379022868932,49.7544
1379022928932,49.5273
1379022988932,49.4643
1379023048932,49.5488
1379023108932,49.4619
1379023168932,49.5150
1379023228943,49.6953
1379023288943,49.6628
1379023348943,49.6853
1379023408943,49.6618
1379023468943,49.5220
1379023528943,49.5976
1379023588943,49.6126
1379023648943,49.7031
1379023708943,49.5607
1379023768943,49.6285
1379023828943,49.7721
1379023888943,49.5834
1379023948943,49.5390
1379024008943,49.4126
1379024068943,49.6212
1379024128943,49.7083
1379024188943,49.5383
1379024248943,49.5926
1379024308943,49.6699
1379024368943,49.6706
1379024428943,49.6533
1379024488943,49.6540
1379024548943,49.6864
1379024608943,49.5738
1379024668943,49.6338
1379024728943,49.6278
1379024788943,48.1442
1379024848943,49.6122
1379024908943,49.5230
1379024968943,49.6545
1379025028943,49.5124
1379025088943,49.6560
1379025148943,49.5019
1379025208943,49.6106
1379025268943,49.4734
1379025328943,49.6261
1379025388943,49.6862
1379025448943,49.5430
1379025508943,49.4458
1379025568943,49.6701
1379025628943,49.6886
1379025688943,49.5462
1379025748943,49.5777
1379025808943,49.6077
1379025868943,49.5948
1379025928943,49.5675
1379025988943,49.6478
1379026048943,49.6611
1379026108943,49.7675
1379026168943,49.5288
1379026228943,49.6945
1379026288943,49.6143
1379026348943,49.6926
1379026408943,49.5618
1379026468943,49.5404
1379026528943,49.5418
1379026588943,49.5617
1379026648943,49.5452
1379026708943,49.6539
1379026768943,49.6298
1379026828955,49.6055
1379026888955,49.8245
1379026948955,49.6306
1379027008955,49.6975
1379027068955,49.4278
1379027128955,49.5664
1379027188955,49.6401
1379027248955,49.6869
1379027308955,49.5130
1379027368955,49.6557
1379027428955,49.6198
1379027488955,49.6426
1379027548955,49.5695
1379027608955,49.6711
1379027668955,49.6711
1379027728955,49.7280
1379027788955,49.6971
1379027848955,49.5506
1379027908955,49.6368
1379027968955,49.7217
1379028028955,49.5032
1379028088955,49.6079
1379028148955,49.6507
1379028208955,49.6277
1379028268955,49.4855
1379028328955,49.5260
1379028388955,49.4572
1379028448955,49.4998
1379028508955,49.5853
1379028568955,49.5095
1379028628955,49.5738
1379028688955,49.5111
1379028748955,49.5399
1379028808955,49.4411
1379028868955,49.4493
1379028928955,49.5098
1379028988955,49.4223
1379029048955,49.4920
1379029108955,49.5200
1379029168955,49.4039
1379029228955,49.6003
1379029288955,49.2877
1379029348955,49.5835
1379029408955,49.4173
1379029468955,49.1506
1379029528955,49.3895
1379029588955,49.4844
1379029648955,49.3351
1379029708955,49.1157
1379029768955,49.3611
1379029828955,49.1924
1379029888955,49.2715
1379029948955,49.2701
1379030008955,49.2506
1379030068955,49.3255
1379030128955,49.2892
1379030188955,49.3193
1379030248955,49.3203
1379030308955,49.3299
1379030368955,49.3845
